Dumas, TX

11:08 AM CDT on July 23, 2017 (GMT -0500)
Moore County

Weather History for KDUX - May, 2013

Change the Weather History Date:

Tuesday, May 28, 2013

  Actual Average (KDHT) Record (KDHT)
Temperature  
Mean Temperature 77 °F -  
Max Temperature 95 °F 82 °F 100 °F (1974)
Min Temperature 59 °F 52 °F 38 °F (1992)
Cooling Degree Days 12    
Growing Degree Days 27 (Base 50)    
Moisture  
Dew Point 35 °F    
Average Humidity 26    
Maximum Humidity 63    
Minimum Humidity 7    
Precipitation  
Precipitation 0.00 in - - ()
Sea Level Pressure  
Sea Level Pressure 29.71 in    
Wind  
Wind Speed 15 mph (SSW)    
Max Wind Speed 50 mph    
Max Gust Speed 59 mph    
Visibility 8 miles    
Events Rain    
Averages and records for this station are not official NWS values.
T = Trace of Precipitation, MM = Missing Value Source: NWS Daily Summary

Daily Weather History Graph

Daily Weather History Graph

Search for Another Location

Airport or City:

Trip Planner

Search our weather history database for the weather conditions in past years. The results will help you decide how hot, cold, wet, or windy it might be!

Date:

Astronomy

May. 28, 2013 Rise Set
Actual Time 6:34 AM CDT 8:56 PM CDT
Civil Twilight 6:05 AM CDT 9:26 PM CDT
Nautical Twilight 5:28 AM CDT 10:02 PM CDT
Astronomical Twilight 4:49 AM CDT 10:42 PM CDT
Moon No Moon Rise 10:22 AM CDT (5/28)
Length of Visible Light 15h 21m
Length of Day
14h 22m
Waning Gibbous, 82% of the Moon is Illuminated
May 28
Waning Gibbous
May 31
Last Quarter
Jun 8
New
Jun 16
First Quarter
Jun 23
Full

Hourly Weather History & Observations

Time (CDT) Temp. Dew Point Humidity Pressure Visibility Wind Dir Wind Speed Gust Speed Precip Events Conditions
12:15 AM 72.9 °F 15.6 °F 11% 29.75 in 10.0 mi SSW 11.5 mph - N/A   Clear
12:35 AM 72.9 °F 16.0 °F 12% 29.75 in 10.0 mi SSW 11.5 mph - N/A   Clear
12:55 AM 72.7 °F 14.7 °F 11% 29.74 in 10.0 mi SSW 10.4 mph - N/A   Clear
1:15 AM 70.0 °F 13.1 °F 11% 29.74 in 10.0 mi SW 11.5 mph - N/A   Clear
1:35 AM 67.5 °F 13.1 °F 12% 29.74 in 10.0 mi SW 10.4 mph - N/A   Clear
1:55 AM 63.5 °F 16.2 °F 16% 29.74 in 10.0 mi South 15.0 mph - N/A   Clear
2:15 AM 68.9 °F 24.3 °F 19% 29.74 in 10.0 mi South 11.5 mph 16.1 mph N/A   Clear
2:35 AM 67.8 °F 33.8 °F 28% 29.74 in 10.0 mi South 6.9 mph - N/A   Clear
2:55 AM 65.1 °F 34.9 °F 33% 29.74 in 10.0 mi South 10.4 mph - N/A   Clear
3:15 AM 65.1 °F 35.4 °F 33% 29.74 in 10.0 mi SW 10.4 mph - N/A   Clear
3:35 AM 63.0 °F 33.3 °F 33% 29.75 in 10.0 mi SSW 9.2 mph - N/A   Clear
3:55 AM 61.2 °F 40.1 °F 46% 29.75 in 10.0 mi SSW 9.2 mph - N/A   Clear
4:15 AM 63.5 °F 42.4 °F 46% 29.76 in 10.0 mi SSW 10.4 mph - N/A   Clear
4:35 AM 62.6 °F 40.3 °F 44% 29.76 in 10.0 mi SSW 9.2 mph - N/A   Clear
4:55 AM 61.3 °F 37.0 °F 40% 29.76 in 10.0 mi SSW 11.5 mph - N/A   Clear
5:15 AM 61.3 °F 39.9 °F 45% 29.76 in 10.0 mi SSW 11.5 mph - N/A   Clear
5:35 AM 61.5 °F 40.8 °F 47% 29.75 in 10.0 mi SSW 11.5 mph - N/A   Clear
5:55 AM 61.7 °F 42.6 °F 50% 29.75 in 10.0 mi SSW 10.4 mph - N/A   Clear
6:15 AM 60.8 °F 43.0 °F 52% 29.75 in 10.0 mi SSW 10.4 mph - N/A   Clear
6:35 AM 60.4 °F 44.1 °F 55% 29.75 in 10.0 mi SSW 11.5 mph - N/A   Clear
6:55 AM 59.4 °F 44.8 °F 58% 29.75 in 10.0 mi South 11.5 mph - N/A   Clear
7:15 AM 61.7 °F 49.1 °F 63% 29.76 in 10.0 mi SSW 8.1 mph - N/A   Clear
7:35 AM 64.0 °F 49.8 °F 60% 29.77 in 10.0 mi South 5.8 mph - N/A   Clear
7:55 AM 66.6 °F 51.8 °F 59% 29.77 in 10.0 mi SSW 9.2 mph - N/A   Clear
8:15 AM 68.4 °F 53.2 °F 58% 29.78 in 10.0 mi SSW 10.4 mph - N/A   Clear
8:35 AM 70.2 °F 52.7 °F 54% 29.78 in 10.0 mi SW 11.5 mph - N/A   Clear
8:55 AM 71.6 °F 49.6 °F 46% 29.78 in 10.0 mi SW 10.4 mph - N/A   Clear
9:15 AM 74.7 °F 42.3 °F 31% 29.77 in 10.0 mi SW 11.5 mph - N/A   Clear
9:35 AM 77.7 °F 38.3 °F 24% 29.77 in 10.0 mi WSW 11.5 mph - N/A   Clear
9:55 AM 80.6 °F 31.5 °F 17% 29.77 in 10.0 mi WSW 12.7 mph - N/A   Clear
10:15 AM 82.9 °F 26.2 °F 13% 29.77 in 10.0 mi WSW 11.5 mph - N/A   Clear
10:35 AM 84.7 °F 22.6 °F 10% 29.76 in 10.0 mi WSW 11.5 mph - N/A   Clear
10:55 AM 85.5 °F 22.1 °F 10% 29.75 in 10.0 mi West 12.7 mph - N/A   Clear
11:15 AM 86.5 °F 20.7 °F 9% 29.75 in 10.0 mi WSW 12.7 mph - N/A   Clear
11:35 AM 87.6 °F 20.7 °F 9% 29.75 in 10.0 mi SW 10.4 mph 19.6 mph N/A   Clear
11:55 AM 88.0 °F 21.4 °F 9% 29.76 in 10.0 mi SW 8.1 mph 18.4 mph N/A   Clear
12:15 PM 88.3 °F 22.5 °F 9% 29.75 in 10.0 mi WSW 10.4 mph 16.1 mph N/A   Clear
12:35 PM 90.5 °F 21.4 °F 8% 29.74 in 10.0 mi SSW 12.7 mph - N/A   Clear
12:55 PM 91.2 °F 21.9 °F 8% 29.74 in 10.0 mi South 12.7 mph 17.3 mph N/A   Clear
1:15 PM 92.5 °F 22.6 °F 8% 29.73 in 10.0 mi South 15.0 mph 19.6 mph N/A   Clear
1:35 PM 91.9 °F 21.6 °F 8% 29.73 in 10.0 mi South 16.1 mph 21.9 mph N/A   Clear
1:55 PM 92.5 °F 22.6 °F 8% 29.72 in 10.0 mi SSW 13.8 mph 17.3 mph N/A   Clear
2:15 PM 93.6 °F 24.3 °F 8% 29.70 in 10.0 mi SSE 9.2 mph 20.7 mph N/A   Clear
2:35 PM 94.3 °F 23.9 °F 8% 29.68 in 10.0 mi South 15.0 mph 28.8 mph N/A   Clear
2:55 PM 95.0 °F 24.3 °F 8% 29.67 in 10.0 mi SSW 19.6 mph 26.5 mph N/A   Clear
3:15 PM 95.4 °F 28.6 °F 9% 29.67 in 10.0 mi SSW 12.7 mph 24.2 mph N/A   Clear
3:35 PM 95.4 °F 22.3 °F 7% 29.65 in 10.0 mi SSW 15.0 mph 34.5 mph N/A   Clear
3:55 PM 94.3 °F 41.5 °F 16% 29.62 in 10.0 mi South 26.5 mph 35.7 mph N/A   Clear
4:15 PM 95.4 °F 39.2 °F 14% 29.62 in 10.0 mi South 31.1 mph 51.8 mph N/A   Clear
4:35 PM 92.5 °F 51.4 °F 25% 29.62 in 7.0 mi South 32.2 mph 36.8 mph N/A   Scattered Clouds
4:55 PM 84.7 °F 52.3 °F 33% 29.62 in 3.0 mi South 32.2 mph 44.9 mph N/A   Haze
5:15 PM 78.4 °F 57.0 °F 48% 29.63 in 3.0 mi South 31.1 mph 46.0 mph N/A Rain Light Rain
5:35 PM 81.7 °F 52.9 °F 37% 29.64 in 5.0 mi South 32.2 mph 39.1 mph N/A   Haze
5:55 PM 83.5 °F 41.5 °F 23% 29.64 in 2.5 mi South 29.9 mph 46.0 mph N/A   Haze
6:15 PM 82.8 °F 41.9 °F 24% 29.62 in 3.0 mi SSE 29.9 mph 41.4 mph N/A   Haze
6:35 PM 84.4 °F 37.0 °F 19% 29.63 in 7.0 mi South 31.1 mph 43.7 mph N/A   Overcast
6:55 PM 82.0 °F 44.6 °F 27% 29.63 in 2.5 mi South 35.7 mph 46.0 mph N/A   Haze
7:15 PM 80.6 °F 39.7 °F 23% 29.63 in 2.5 mi South 36.8 mph 49.5 mph N/A   Haze
7:35 PM 80.6 °F 36.9 °F 21% 29.64 in 7.0 mi SSE 25.3 mph 35.7 mph N/A   Mostly Cloudy
7:55 PM 80.4 °F 40.1 °F 24% 29.63 in 2.5 mi South 32.2 mph 47.2 mph N/A   Haze
8:15 PM 79.7 °F 44.2 °F 28% 29.63 in 5.0 mi South 28.8 mph 39.1 mph N/A   Haze
8:35 PM 79.3 °F 39.9 °F 24% 29.63 in 3.0 mi South 41.4 mph 49.5 mph N/A   Haze
8:55 PM 77.0 °F 39.4 °F 26% 29.62 in 2.5 mi South 38.0 mph 44.9 mph N/A   Haze
9:15 PM 76.8 °F 38.5 °F 25% 29.61 in 4.0 mi SSE 39.1 mph 49.5 mph N/A   Haze
9:35 PM 79.2 °F 34.5 °F 20% 29.58 in 5.0 mi South 42.6 mph 50.6 mph N/A   Haze
9:55 PM 81.5 °F 32.5 °F 17% 29.61 in 2.0 mi South 49.5 mph 58.7 mph N/A   Haze
10:15 PM 79.7 °F 35.1 °F 20% 29.67 in 3.0 mi South 33.4 mph 56.4 mph N/A   Haze
10:35 PM 79.5 °F 37.0 °F 22% 29.74 in 4.0 mi South 41.4 mph 57.5 mph N/A   Haze
10:55 PM 74.1 °F 41.9 °F 31% 29.75 in 10.0 mi South 36.8 mph 43.7 mph N/A   Scattered Clouds
11:15 PM 71.1 °F 43.3 °F 37% 29.75 in 10.0 mi East 6.9 mph 35.7 mph N/A   Light Drizzle
11:35 PM 72.9 °F 40.6 °F 31% 29.72 in 10.0 mi ESE 20.7 mph 27.6 mph N/A   Scattered Clouds
11:55 PM 74.3 °F 39.2 °F 28% 29.68 in 10.0 mi East 12.7 mph 23.0 mph N/A   Clear